Regional Weather Roundup
Issued by NWS Upton, NY

Current Version | Previous Version | Text Only | Print | Product List | Glossary Off
Versions: 1 2 3 4 5 6 7 8 9 10 11 12 13 14 15 16 17 18 19 20 21 22 23 24 25 26 27 28 29 30 31 32 33 34
000 ASUS41 KOKX 090508 RWROKX REGIONAL WEATHER ROUNDUP NATIONAL WEATHER SERVICE NEW YORK NY 1200 AM EST FRI DEC 09 2016 NOTE: "FAIR" INDICATES FEW OR NO CLOUDS BELOW 12,000 FEET WITH NO SIGNIFICANT WEATHER AND/OR OBSTRUCTIONS TO VISIBILITY. NYZ071-072-176-178-NJZ106-104-090600- NEW YORK CITY METRO AREA CITY SKY/WX TMP DP RH WIND PRES REMARKS Central Park NOT AVBL Wall St Helipt PTCLDY 36 21 54 W18G28 30.01S WCI 26 Bronx Bot Gard NOT AVBL LaGuardia APRT PTCLDY 36 17 46 W17G28 29.99S WCI 26 Kennedy INTL PTCLDY 36 17 46 W20G31 30.01S WCI 25 Breezy Point N/A 34 N/A N/A W18G31 N/A WCI 23 Newark/Liberty PTCLDY 34 16 47 W15 30.01S WCI 24 Teterboro PTCLDY 34 17 50 W8 29.98S WCI 27 $$ NYZ177-179-078>081-090600- LONG ISLAND NEW YORK CITY SKY/WX TMP DP RH WIND PRES REMARKS Jones Beach N/A 36 N/A N/A W21G29 N/A WCI 24 Matinecock PT NOT AVBL Farmingdale CLEAR 35 16 45 W13G21 29.98S WCI 26 MacArthur/ISP PTCLDY 34 18 52 W9 29.96R WCI 27 Shirley MOCLDY 35 19 52 W8 29.96S WCI 29 Westhampton PTCLDY 35 18 49 W10 29.95F WCI 27 Southampton NOT AVBL Bridgehampton NOT AVBL East Hampton N/A 36 20 53 NW14G21 29.92S WCI 27 Montauk N/A 38 23 55 W13G25 29.92S WCI 30 $$ NYZ052-065-067-090600- HUDSON VALLEY CITY SKY/WX TMP DP RH WIND PRES REMARKS White Plains CLEAR 33 15 47 W12 29.94S WCI 24 Newburgh MOCLDY 30 25 80 NW12 29.95S WCI 21 Montgomery MOCLDY 33 20 58 W5 29.94S WCI 29 Poughkeepsie CLOUDY 32 22 66 SW8 29.95S WCI 25 Albany PTCLDY 31 14 49 W8 29.90S WCI 23 $$ NJZ001-105-106-008-010-013-015-019>022-104-090600- NEW JERSEY CITY SKY/WX TMP DP RH WIND PRES REMARKS Newark/Liberty PTCLDY 34 16 47 W15 30.01S WCI 24 Teterboro PTCLDY 34 17 50 W8 29.98S WCI 27 Caldwell PTCLDY 33 17 51 VRB6 30.00S WCI 28 Somerville CLEAR 32 14 47 W8G16 30.02R WCI 25 Linden N/A 33 16 49 W15 30.02R WCI 23 Sussex PTCLDY 33 14 45 W9 29.97S WCI 25 Andover N/A 30 16 56 VRB5 29.98F WCI 25 Trenton CLEAR 31 14 49 W13G22 30.05S WCI 21 Millville CLEAR 32 17 54 NW12 30.12R WCI 23 Atlantic City CLEAR 32 14 47 W15 30.09R WCI 22 Wrightstown CLEAR 31 14 50 W14G23 30.04S WCI 21 Toms River CLEAR 31 17 56 W14G22 30.07R WCI 21 Belmar CLEAR 31 17 56 W13G21 30.04S WCI 21 $$ PAZ047>061-062-071-090600- EASTERN PENNSYLVANIA CITY SKY/WX TMP DP RH WIND PRES REMARKS Philadelphia PTCLDY 32 13 45 W16 30.12S WCI 21 Allentown MOCLDY 31 15 52 W15G21 30.05S WCI 20 Scranton CLOUDY 30 16 56 W10 30.01R WCI 21 $$ CTZ002-004>006-009-010-012-RIZ004-006-007-MAZ004-011-015-090600- SOUTHERN NEW ENGLAND IN CT CITY SKY/WX TMP DP RH WIND PRES REMARKS Bradley INTL PTCLDY 30 18 60 W7 29.90F WCI 23 Hartford PTCLDY 33 21 61 W6 29.91F WCI 28 Danbury CLEAR 32 21 64 W9 29.94S WCI 24 Wtrbury/Oxford CLEAR 30 18 59 W5 29.91F WCI 25 Bridgeport CLOUDY 36 20 52 W6 29.95 WCI 31 Meriden PTCLDY 34 19 54 CALM 29.92F New Haven PTCLDY 35 22 58 W9 29.94S WCI 28 Chester N/A 32 18 55 CALM 29.90F Groton CLEAR 37 24 59 W10 29.91S WCI 30 Wilimantic PTCLDY 34 19 54 W6 29.90S WCI 29 IN RI CITY SKY/WX TMP DP RH WIND PRES REMARKS Providence CLEAR 32 21 64 SW5 29.88S WCI 27 Block Island PTCLDY 36 23 59 NW14G24 29.90S WCI 27 Westerly CLEAR 34 18 52 VRB5 29.91S WCI 30 IN MA CITY SKY/WX TMP DP RH WIND PRES REMARKS Boston CLEAR 34 17 50 W20G28 29.83S WCI 23 Worcester CLEAR 29 14 53 W23G33 29.78F WCI 15 Westfield MOCLDY 32 17 54 W10 29.88F WCI 24 Provincetown CLEAR 36 22 56 W18G31 29.82F WCI 26 Nantucket CLOUDY 38 22 52 NW16G25 29.85F WCI 29 $$ ANZ330-335-338-340-345-350-353-355-090600- COASTAL MARINE OBSERVATIONS STATION/POSITION TIME SKY/WX TEMP WIND PRES VSBY WAVE AIR SEA DIR/SP/G HT/PER (UTC) (F) (DEG/KT/KT) (MB) (MI) (FT/S) NY HARB ENTRANCE 0350 38 52 280/ 27/ 33 1015.2 4/ 5 20 S FIRE ISLAND 0450 39 53 300/ 27/ 35 1014.4 7/ 6 GREAT SOUTH BAY 0430 37 42 N/A 23 SSW MONTAUK P 0350 41 54 290/ 27/ 33 1012.9 5/ 6 15 E BARNEGAT LI 0430 53 N/A 6/ 5 HUDSON CANYON 0350 43 56 1014.4 9/ 7 KINGS POINT 0442 36 46 1014.9 EXECUTION ROCKS 0445 38 250/ 14/ 19 N/A CENTRAL LI SOUND 0445 39 50 280/ 23/ 29 N/A 4/ 4 EASTERN LI SOUND NOT AVBL ROBBINS REEF 0448 35 270/ 23/ 30 1015.8 $$ >>>>>>>>>>>>>>>>>>>>>>>>>>>> KEY <<<<<<<<<<<<<<<<<<<<<<<<<<< > < > SKY/WX - Sky Condition/Present Weather < > TMP - Temperature in Fahrenheit < > DP - Dew Point in Fahrenheit < > RH - Relative Humidity in Percent < > WIND - Direction (from) and Speed in MPH < > PRES - Mean Sea Level Pressure (inches of Hg) < > WCI - Wind Chill Index < > VSB - VISIBILITY IN MILES < > HX - HEAT INDEX < > TC - TEMPERATURE IN CELSIUS < > VRB - VARIABLE WIND DIRECTION < > < >>>>>>>>>>>>>>>>>>>>>>>>>>>> KEY <<<<<<<<<<<<<<<<<<<<<<<<<<<

USA.gov is the U.S. government's official web portal to all federal, state and local government web resources and services.